Location: *
(34.8620°S, 39.3380°E)
Time: 09:18:34
(UTC+00:00)

AQUARIUS - Pass Details

Date: 27 July 2021
Orbit: 650 x 651 km, 98.0° (Epoch: 22 September)

Event Time Altitude Azimuth Distance (km) Brightness Sun altitude
Rises 03:12:06 0° 6° (N) 2,960 7.8 -14.2°
Reaches altitude 10° 03:14:19 10° 2° (N) 2,057 6.9 -13.8°
Maximum altitude 03:18:46 62° 281° (W) 740 4.2 -12.9°
Drops below altitude 10° 03:23:17 10° 199° (SSW) 2,086 6.4 -12.0°
Sets 03:25:33 0° 196° (SSW) 3,005 7.3 -11.5°
